Vorticity
nan nan nan nan nan nan nan nan nan nan nan nan nan nan nan nan nan nan nan nan nan nan nan nan nan nan nan nan nan nan nan nan nan nan nan nan nan nan nan nan nan nan nan nan
nan 9 6 9 7 13 12 4 8 6 7 13 12 11 15 15 12 13 12 10 8 8 8 8 9 10 10 9 10 10 12 10 9 8 7 7 8 9 9 9 8 10 11 nan
nan 17 11 10 15 9 6 9 9 8 7 7 7 11 15 15 12 12 12 11 11 10 10 10 10 10 10 9 9 10 10 10 9 8 9 8 8 8 8 8 8 8 9 nan
nan 16 12 14 20 19 13 9 6 6 6 4 8 11 12 16 15 12 13 14 12 11 11 12 11 11 10 10 10 11 10 9 9 8 8 9 8 8 8 9 9 9 10 nan
nan 7 7 12 19 18 16 13 16 9 8 8 10 11 17 12 16 15 12 13 13 14 13 13 12 12 11 8 7 8 8 6 8 10 8 10 7 9 9 9 10 10 10 nan
nan 7 9 12 16 11 15 15 14 17 18 13 9 10 8 13 18 14 12 13 14 14 12 12 13 12 9 6 5 6 7 7 8 5 8 12 9 8 9 9 10 11 9 nan
nan 5 7 13 11 12 11 8 8 17 18 13 4 7 10 17 16 14 14 13 12 11 11 12 11 10 6 4 3 5 9 13 11 10 10 7 12 10 10 11 11 9 8 nan
nan 17 14 6 10 7 12 12 10 11 13 13 10 10 14 14 14 15 13 12 12 10 12 11 10 6 4 5 9 13 12 8 7 10 12 10 11 9 11 10 7 8 9 nan
nan 20 20 9 9 14 9 10 9 9 12 16 12 9 11 12 11 11 11 10 10 12 13 12 11 6 7 13 13 11 9 7 8 8 9 12 10 8 9 9 9 11 8 nan
nan 11 9 12 11 9 10 10 11 13 14 16 11 8 9 9 9 9 11 11 10 12 9 10 13 11 11 13 13 10 9 8 8 9 10 8 8 10 10 12 10 10 10 nan
nan 12 8 11 11 11 11 10 11 11 14 19 16 12 10 7 11 12 11 11 11 9 12 12 12 12 11 11 11 11 8 8 7 9 10 8 9 11 14 9 16 17 12 nan
nan 12 10 15 8 9 9 7 7 10 11 12 17 15 14 14 15 15 12 11 9 9 10 11 12 12 10 13 10 9 7 7 10 10 9 9 10 2 4 13 15 12 12 nan
nan 13 17 9 7 8 7 7 8 8 8 10 10 15 16 15 14 13 13 11 10 10 10 12 11 10 11 13 12 8 7 7 8 9 8 9 10 10 2 1 6 9 7 nan
nan 12 12 8 5 7 7 10 12 10 7 7 9 9 12 14 14 12 12 11 12 13 12 11 12 12 13 11 9 9 6 8 11 11 10 10 11 10 9 8 6 5 7 nan
nan 6 14 15 6 7 9 13 12 8 9 9 9 8 10 13 11 11 12 14 13 12 12 12 12 12 12 12 11 8 8 11 9 11 12 11 11 10 10 9 9 10 9 nan
nan 10 9 9 9 10 10 9 10 9 11 11 10 10 9 12 12 14 13 14 12 11 13 12 12 11 11 10 9 9 9 10 11 11 11 10 9 9 9 9 10 10 9 nan
nan 9 9 9 8 9 10 10 10 10 10 9 10 12 15 16 15 16 14 12 12 16 14 11 12 11 10 10 7 8 12 10 11 11 10 10 10 10 10 10 9 11 10 nan
nan 13 10 11 11 9 8 9 10 10 11 11 12 13 15 19 20 16 16 13 12 12 14 13 14 10 10 10 8 8 11 11 12 9 10 12 11 9 12 11 12 12 11 nan
nan 10 10 10 9 9 8 9 10 10 10 12 13 14 16 17 18 17 17 14 12 11 12 11 12 12 11 11 8 9 12 10 10 9 10 10 10 10 11 12 12 11 13 nan
nan 9 9 9 9 9 8 8 8 9 10 11 12 12 13 14 17 18 14 13 12 17 18 17 8 11 11 10 9 10 12 11 10 10 10 10 11 10 9 11 12 11 10 nan
nan 8 9 9 8 9 8 7 8 8 9 9 10 12 13 12 14 18 19 14 13 16 19 16 10 11 13 12 11 10 13 13 12 12 11 11 8 10 11 11 10 10 10 nan
nan 8 9 10 9 10 9 8 8 8 9 9 9 11 13 13 13 12 13 14 6 14 20 11 9 16 22 11 11 10 9 11 14 13 14 9 8 11 10 11 11 9 8 nan
nan 10 10 10 10 11 11 10 8 9 9 10 9 11 11 11 13 15 13 14 14 12 11 14 14 12 9 10 11 9 12 11 7 12 15 15 16 13 12 10 9 12 11 nan
nan 9 8 10 10 10 10 8 10 14 15 13 10 9 10 15 13 13 13 14 12 6 13 16 13 11 9 11 9 10 14 16 15 11 9 17 17 14 15 14 13 14 15 nan
nan 10 11 10 11 11 10 12 16 14 15 15 13 10 11 10 13 14 12 12 10 9 14 14 11 11 9 10 10 12 15 15 12 10 11 10 13 11 8 10 11 9 14 nan
nan 8 9 8 12 15 13 13 11 12 13 13 13 12 11 11 13 10 8 8 10 12 11 10 10 11 10 12 12 12 12 12 10 9 9 7 6 8 12 9 10 10 13 nan
nan nan nan nan nan nan nan nan nan nan nan nan nan nan nan nan nan nan nan nan nan nan nan nan nan nan nan nan nan nan nan nan nan nan nan nan nan nan nan nan nan nan nan nan
CAPE
0 0 0 0 0 0 0 4 50 50 38 96 200 886 878 957 1264 1097 1240 1558 1434 1112 1530 2040 2423 2727 2858 2801 2745 2397 2680 2889 2923 2597 1590 1354 1229 1021 788 660 587 488 421 434
0 0 0 0 0 0 0 0 0 0 22 66 851 1125 1012 1123 1388 1488 1137 1572 1640 1546 1562 2199 2652 2918 3061 3048 3222 2984 3099 2674 2268 1633 1554 1305 1106 784 388 214 179 155 119 73
0 0 0 0 0 0 0 0 0 8 65 1037 822 990 1188 1142 1470 1657 1725 1686 1794 1769 2155 2464 2743 2972 3069 2706 2433 2454 2261 1778 1554 1366 1135 951 496 215 116 61 38 5 5 7
12 6 0 0 0 0 0 0 0 42 118 609 986 1218 1281 1138 1328 1596 1831 1935 1956 1937 2257 2617 2695 2690 2556 2119 1667 1684 1328 1270 1095 1025 610 350 294 188 65 6 3 0 2 8
51 58 3 13 137 56 0 0 0 75 222 796 925 975 1303 1095 1065 1532 1732 2169 2204 2084 2534 2535 2411 2469 2223 1736 1169 1182 760 616 302 221 313 287 201 70 0 2 7 8 10 13
272 75 67 91 338 568 582 265 516 731 584 943 1071 965 1421 999 1079 1385 1686 2253 2453 2316 2375 2146 2065 1990 1559 966 344 9 7 64 274 262 163 141 20 1 2 8 11 7 11 12
564 429 306 415 766 894 342 675 1276 1193 1212 1235 1219 1493 1330 1005 1191 1342 1748 2191 2254 2163 2122 1986 1504 1325 1000 559 185 267 223 138 65 29 9 15 0 5 8 16 13 12 14 15
466 545 565 924 944 850 1162 891 1116 1296 1432 1405 1391 1122 1162 1316 1644 1796 1999 2116 2049 2035 1973 1583 1277 1128 935 862 802 460 114 2 0 2 1 0 1 9 16 27 15 12 12 8
938 1130 1208 1144 1262 1035 772 999 953 1054 1042 1412 1309 1219 1260 1589 1714 1925 2056 1845 1890 1989 1745 1339 1327 1003 1009 1134 578 174 33 10 4 5 6 6 4 14 22 19 10 7 0 0
1059 1187 1211 1055 909 778 732 861 906 1057 1084 990 1209 1171 1361 1480 1718 1950 1907 2055 1564 1552 1356 1466 1374 1154 1224 446 286 177 93 8 4 2 3 2 5 6 3 1 0 0 0 0
911 1200 1017 829 848 901 841 877 923 1110 1371 1266 1063 1242 1439 1649 1951 1947 1836 1782 1953 1727 1303 1078 1188 1132 1091 528 120 115 32 10 12 3 1 1 2 2 0 0 0 0 0 0
1274 1197 1353 1123 887 728 716 706 767 902 1272 1719 1257 1202 1338 1682 2008 2147 2203 2233 2254 2114 1835 1018 975 983 624 432 261 46 16 19 23 17 7 2 0 0 0 0 0 0 0 0
1474 1215 1266 858 663 621 569 265 269 266 618 914 1711 1869 1860 2117 2159 1833 2040 2123 2099 2020 1827 1008 976 714 514 414 516 201 16 21 11 0 0 3 0 0 0 0 0 0 0 0
1157 1033 955 749 735 322 160 19 0 4 9 168 460 1306 1732 1883 1853 1886 1990 1970 1842 1692 1424 617 535 606 714 322 247 478 366 0 13 1 1 1 0 0 0 0 0 0 0 0
857 652 908 555 226 30 0 0 0 0 0 0 19 116 419 1375 1642 1818 1899 1830 1698 1549 1400 800 747 661 272 373 345 129 1 2 0 0 0 0 0 0 0 2 4 7 7 0
463 222 83 18 8 3 0 0 0 0 0 0 3 16 48 134 848 1455 1558 1332 1646 1621 1424 1208 902 418 212 97 23 6 1 0 0 0 0 0 0 0 1 3 8 9 14 16
139 16 0 0 0 0 0 0 0 0 0 0 2 12 50 78 291 616 1003 794 860 1194 1257 1120 794 308 168 52 0 0 0 0 0 0 0 0 0 1 1 5 2 0 6 12
0 0 0 0 0 0 0 0 0 0 0 2 7 28 123 205 339 420 434 364 366 452 612 740 596 300 32 0 0 0 0 0 0 0 0 0 0 0 0 0 0 0 3 3
0 0 0 0 0 0 0 0 0 0 1 4 11 45 4 4 7 99 145 118 251 488 531 484 10 4 27 0 0 0 0 0 0 0 0 0 0 0 0 0 0 1 0 3
10 6 0 0 0 0 0 0 0 0 0 3 9 9 3 9 6 12 50 142 387 569 631 383 7 113 98 14 0 0 0 0 0 0 0 0 0 0 0 0 0 0 0 3
72 74 57 52 20 0 0 0 0 0 0 1 5 11 16 11 13 5 11 33 1 0 415 0 199 113 6 0 0 0 0 0 4 10 2 0 0 0 1 0 0 2 8 17
162 98 48 31 20 10 0 0 0 1 3 3 7 11 13 6 29 21 12 7 1 0 0 1 2 0 0 0 0 0 0 0 0 0 0 0 0 11 13 26 27 19 14 20
362 249 64 30 50 26 0 1 2 1 13 5 9 15 25 21 32 77 42 18 12 2 10 1 0 0 0 0 0 0 0 0 0 0 2 4 22 36 47 49 54 35 25 26
491 390 190 125 66 112 146 162 118 46 27 26 9 5 16 15 42 48 34 0 0 4 9 9 1 0 0 0 0 0 6 17 28 26 96 30 92 117 124 100 64 29 49 27
287 202 107 46 68 123 107 93 67 23 133 190 134 34 11 15 47 84 91 37 0 0 54 0 0 0 44 39 24 15 14 8 12 23 20 35 43 35 22 5 13 49 113 91
170 84 85 132 282 148 109 81 8 1 7 22 30 28 10 57 27 34 82 48 66 8 52 84 82 98 64 133 112 54 31 6 11 36 0 0 1 21 52 54 86 80 172 260
196 25 129 148 302 376 368 125 38 58 30 28 34 51 48 42 43 30 6 39 43 25 31 52 89 76 94 132 146 208 178 167 45 49 10 9 15 29 44 160 215 245 384 300